Terminal Aerodrome Forecast
Issued by NWS

Home | Current Version | Previous Version | Text Only | Print | Product List | Glossary On
Versions: 1 2 3 4 5 6 7 8 9 10 11 12 13 14 15 16 17 18 19
000
FTUS46 KMTR 302129 AAB
TAFMRY
TAF AMD
KMRY 302129Z 3021/3118 29008KT P6SM SCT030 OVC035
      TEMPO 3022/3102 6SM HZ FU OVC025
     FM310200 24004KT 6SM BR FU OVC006
     FM310800 VRB03KT 5SM BR FU OVC004
     FM311100 VRB02KT 4SM BR FU OVC002
     FM311730 VRB03KT 6SM HZ FU FEW005 SCT100=

USA.gov is the U.S. government's official web portal to all federal, state and local government web resources and services.